Home > Weather > Schönebeck > Past weeks

Flag for Germany Past Weather in Schönebeck, Saxony-Anhalt, Germany — Yesterday and Last 2 Weeks

Now
64 °F

Partly sunny.


Feels Like: 64 °F
Forecast: 56 / 74 °F
Wind: 8 mph from West

Location: Leipzig-Schkeuditz

Current Time: Jun 26, 2016 at 12:12:01 PM

Latest Report: Jun 26, 2016 at 11:20 AM


Visibility: N/A

Pressure: 30.07 "Hg

Humidity: 64%

Dew Point: 52 °F

Location of SchönebeckLocation

Past Weather in Schönebeck — Graph

°F

Schönebeck Temperature Yesterday

Maximum temperature yesterday: 82 °F (at 2:20 PM)
Minimum temperature yesterday: 63 °F (at 3:20 AM)
Average temperature yesterday: 72 °F

High & Low Weather Summary for the Past Weeks

 TemperatureHumidityPressure
High93 °F (Jun 24, 2:50 PM)100% (Jun 12, 5:20 AM)30.24 "Hg (Jun 12, 5:20 AM)
Low48 °F (Jun 20, 5:20 AM)30% (Jun 24, 2:50 PM)29.47 "Hg (Jun 14, 4:20 PM)
Average66 °F74%29.89 "Hg
* Reported Jun 11 10:20 AM — Jun 26 10:50 AM, Schönebeck, Weather by CustomWeather, © 2016

Note: Actual official high and low records may vary slightly from our data, if they occured in-between our weather recording intervals... More about our weather records

Advertising

Schönebeck Weather History for the Previous 24 Hours

Scroll right to see more
 ConditionsComfort  
Time TempWeatherWind HumidityBarometerVisibility
10:50 AM
Sun, Jun 26
66 °FScattered clouds.9 mph60%30.07 "HgN/A
10:20 AM66 °FScattered clouds.10 mph64%30.07 "HgN/A
9:50 AM66 °FScattered clouds.14 mph68%30.07 "HgN/A
9:20 AM64 °FPassing clouds.13 mph73%30.07 "HgN/A
8:50 AM63 °FPassing clouds.13 mph77%30.04 "HgN/A
8:20 AM61 °FPassing clouds.13 mph77%30.04 "HgN/A
7:50 AM61 °FPassing clouds.15 mph83%30.04 "HgN/A
7:20 AM59 °FPassing clouds.8 mph88%30.04 "HgN/A
6:50 AM57 °FPassing clouds.9 mph94%30.04 "HgN/A
6:20 AM57 °FScattered clouds.10 mph94%30.01 "HgN/A
5:50 AM57 °FClear.8 mph88%30.01 "Hg10 mi
5:20 AM57 °FPassing clouds.9 mph88%30.01 "HgN/A
4:50 AM57 °FPassing clouds.14 mph94%29.98 "HgN/A
4:20 AM59 °FPassing clouds.10 mph94%29.98 "HgN/A
3:50 AM59 °FPassing clouds.13 mph94%29.98 "HgN/A
3:20 AM59 °FPassing clouds.15 mph94%29.95 "HgN/A
2:50 AM59 °FPassing clouds.16 mph94%29.95 "HgN/A
2:20 AM61 °FPartly cloudy.10 mph94%29.95 "HgN/A
1:50 AM61 °FPassing clouds.14 mph94%29.95 "Hg5 mi
1:20 AM61 °FLight rain. Passing clouds.12 mph94%29.92 "HgN/A
12:50 AM61 °FMostly cloudy.13 mph94%29.92 "HgN/A
12:20 AM63 °FPassing clouds.17 mph94%29.92 "HgN/A
11:50 PM
Sat, Jun 25
63 °FPassing clouds.20 mph100%29.89 "HgN/A
11:20 PM64 °FPassing clouds.17 mph100%29.89 "HgN/A
10:50 PM64 °FPassing clouds.8 mph100%29.89 "HgN/A
10:20 PM66 °FThunderstorms. Broken clouds.10 mph94%29.86 "HgN/A
9:50 PM70 °FThundershowers. Scattered clouds.8 mph94%29.83 "HgN/A
9:20 PM70 °FBroken clouds.3 mph94%29.80 "HgN/A
8:50 PM68 °FThunderstorms. Scattered clouds.2 mph94%29.80 "HgN/A
8:20 PM73 °FThunderstorms. Broken clouds.8 mph83%29.80 "HgN/A
7:50 PM75 °FBroken clouds.8 mph74%29.80 "HgN/A
7:20 PM77 °FBroken clouds.9 mph69%29.80 "HgN/A
6:50 PM79 °FPartly sunny.7 mph65%29.80 "HgN/A
6:20 PM81 °FPartly sunny.7 mph66%29.80 "HgN/A
5:50 PM79 °FPartly sunny.10 mph70%29.77 "HgN/A
5:20 PM79 °FPartly sunny.10 mph65%29.80 "HgN/A
4:50 PM81 °FPartly sunny.9 mph62%29.80 "HgN/A
4:20 PM81 °FPartly sunny.13 mph66%29.80 "HgN/A
3:50 PM81 °FPartly sunny.9 mph62%29.83 "HgN/A
3:20 PM82 °FScattered clouds.9 mph58%29.80 "HgN/A
2:50 PM82 °FScattered clouds.8 mph58%29.80 "HgN/A
2:20 PM82 °FScattered clouds.8 mph58%29.83 "HgN/A
1:50 PM81 °FPassing clouds.9 mph62%29.83 "HgN/A
1:20 PM81 °FScattered clouds.8 mph62%29.83 "HgN/A
12:50 PM81 °FScattered clouds.9 mph62%29.86 "HgN/A
12:20 PM79 °FScattered clouds.7 mph65%29.86 "HgN/A
Weather by CustomWeather, © 2016

See weather overviewHow to use our weather pages